Regional Weather Roundup
Issued by NWS Newport/Morehead, NC

Current Version | Previous Version | Text Only | Print | Product List | Glossary On
Versions: 1 2 3 4 5 6 7 8 9 10 11 12 13 14 15 16 17 18 19 20 21 22 23 24 25 26 27 28 29 30 31 32 33 34 35 36 37 38 39 40 41 42 43 44 45 46 47 48 49 50
000 ASUS42 KMHX 240313 RWRMHX WEATHER ROUNDUP FOR EASTERN NORTH CAROLINA NATIONAL WEATHER SERVICE NEWPORT/MOREHEAD CITY NC 1100 PM EDT MON OCT 23 2017 NOTE: "FAIR" INDICATES FEW OR NO CLOUDS BELOW 12,000 FEET WITH NO SIGNIFICANT WEATHER AND/OR OBSTRUCTIONS TO VISIBILITY NCZ015>017-031-032-045>047-102-103-240400- NORTH COAST CITY SKY/WX TMP DP RH WIND PRES REMARKS EDENTON CLOUDY 76 68 76 S18G28 29.91S ELIZABETH CITY MOCLDY 76 68 76 S15G26 29.91F KITTY HAWK CLOUDY 74 66 76 SE8G20 29.93F MANTEO MOCLDY N/A N/A N/A S18 29.95F $$ NCZ045>047-081-094-103-104-240400- CENTRAL COAST CITY SKY/WX TMP DP RH WIND PRES REMARKS FRISCO CLOUDY 78 68 71 S31G40 29.97F $$ NCZ095-097-098-100-101-240400- SOUTHERN COAST CITY SKY/WX TMP DP RH WIND PRES REMARKS BEAUFORT MOCLDY 76 71 85 S18G28 29.95F CEDAR ISLAND NOT AVBL JACKSONVILLE LGT RAIN 75 73 93 S23G35 29.89F PINEY ISLAND FLURRIES N/A N/A N/A S13G29 29.96R WILMINGTON RAIN 75 72 90 S13G23 29.89F $$ NCZ011>013-027>030-043-044-078>080-089-090>093-098-240400- COASTAL PLAIN CITY SKY/WX TMP DP RH WIND PRES REMARKS AHOSKIE CLOUDY 73 68 86 S20G30 29.88R CLINTON CLOUDY 76 71 85 S10G24 29.81F ELIZABETHTOWN NOT AVBL GOLDSBORO LGT RAIN 76 69 79 S16G28 29.79F GREENVILLE CLOUDY 73 70 88 S14G21 29.88F HAVELOCK LGT RAIN 76 72 87 S16G29 29.93F KENANSVILLE LGT RAIN 73 70 88 S10G24 29.82F KINSTON CLOUDY 76 69 81 S23G30 29.84F NEW BERN LGT RAIN 74 72 93 S22G29 29.88F RICHLANDS LGT RAIN 74 71 91 S23G33 29.84F ROCKY MOUNT LGT RAIN 72 71 97 SE15 29.81F WASHINGTON CLOUDY 73 69 89 SE17G26 29.87F WHITEVILLE HVY RAIN 71 69 93 E7G28 29.87R $$ AMZ130-135-150-152-154-156-158-170-250-252-270-ANZ085-086-088-633-658-670-240400- MARINE OBSERVATIONS STATION/POSITION TIME TEMP WIND PRES WAVE SWELL AIR SEA DIR/SP/G HT/PER HT/PER (UTC) (F) (DEG/KT/KT) (MB) (FT/S) (FT/S) CHESAPEAKE LIGHT NOT AVBL 64 E VA BEACH 0250 75 69 160/ 25/ 31 1013.9 8/ 7 DUCK 0242 73 70 1012.6 2 E DUCK 0300 71 N/A 5/ 7 OREGON INLET 0242 75 72 1014.2 13E OREGON INLT 0248 73 N/A 7/ 6 3/13 HATTERAS CG 0242 78 74 1014.6 DIAMOND BUOY 0250 79 80 170/ 29/ 35 1014.4 9/ 7 CAPE LOOKOUT 0300 76 170/ 24/ 28 1014.1 BEAUFORT LAB 0242 76 74 1014.2 30 SE NEW RVR IN 0208 78 180/ 25/ 31 1013.7 30 SE NEW RVR IN NOT AVBL 27 SE WRIGHTSVLE 0208 78 76 170/ 21/ 29 1013.5 5 SE WRIGHTSVLE 0208 76 74 170/ 17/ 27 1013.7 225 S CAPE HAT 0250 78 80 140/ 17/ 21 1017.3 5/ 6 41 SE CHARLESTON 0300 81 80 180/ 27/ 35 1010.8 $$

USA.gov is the U.S. government's official web portal to all federal, state and local government web resources and services.